K5AGY Weather Reports


Display with metric or nautical units.
time (UTC)temp
F
wind
direction
speed
MPH
gust
MPH
rain 1hr
in
rain 24hr
in
rain mn
in
humidity
%
barometer
mb
20260904051536 82 119 1.0 8.0 0.00 0.00 0.00 74 1012.3
20260904050103 82 136 3.0 8.0 0.00 0.00 0.00 74 1012.1
20260904044531 82 124 3.0 7.0 0.00 0.00 0.00 73 1012.0
20260904043002 83 133 4.0 11.0 0.00 0.00 0.00 73 1012.0
20260904041535 83 133 4.0 10.0 0.00 0.00 0.00 72 1012.0
20260904040007 83 158 2.0 12.0 0.00 0.00 0.00 71 1012.0
20260904034539 83 147 4.0 12.0 0.00 0.00 0.00 70 1012.0
20260904033011 84 143 4.0 13.0 0.00 0.00 0.00 69 1011.8
20260904031540 84 115 5.0 13.0 0.00 0.00 0.00 69 1011.9
20260904030011 84 208 6.0 13.0 0.00 0.00 0.00 68 1011.8
20260904024547 84 185 7.0 15.0 0.00 0.00 0.00 67 1011.6
20260904023017 84 119 5.0 11.0 0.00 0.00 0.00 65 1011.5
20260904021547 84 113 4.0 10.0 0.00 0.00 0.00 65 1011.4
20260904020019 85 79 5.0 11.0 0.00 0.00 0.00 64 1011.1
20260904014603 85 85 6.0 11.0 0.00 0.00 0.00 62 1011.0
20260904013021 86 67 6.0 12.0 0.00 0.00 0.00 61 1010.7
20260904011553 87 96 7.0 12.0 0.00 0.00 0.00 59 1010.4
20260904010023 87 103 5.0 16.0 0.00 0.00 0.00 58 1010.2
20260904004558 88 95 6.0 13.0 0.00 0.00 0.00 57 1010.3
20260904003027 88 62 9.0 19.0 0.00 0.00 0.00 55 1010.2
20260904001608 89 98 9.0 20.0 0.00 0.00 0.00 55 1010.2
20260904000033 89 76 8.0 15.0 0.00 0.00 0.00 55 1009.9
20260903234502 89 89 8.0 18.0 0.00 0.00 0.00 55 1009.9
20260903233048 90 104 10.0 20.0 0.00 0.00 0.00 54 1009.8
20260903231506 91 124 9.0 16.0 0.00 0.00 0.00 53 1009.8
20260903224510 90 79 8.0 17.0 0.00 0.00 0.00 53 1009.8
20260903223107 90 65 9.0 19.0 0.00 0.00 0.00 52 1009.7
20260903221513 91 103 8.0 18.0 0.00 0.00 0.00 53 1009.5
20260903220045 95 68 12.0 22.0 0.00 0.00 0.00 45 1009.3
20260903214516 100 70 5.0 12.0 0.00 0.00 0.00 34 1009.0
20260903213104 101 96 7.0 13.0 0.00 0.00 0.00 32 1009.1
20260903211518 101 129 4.0 11.0 0.00 0.00 0.00 31 1009.3
20260903210112 102 58 4.0 12.0 0.00 0.00 0.00 31 1009.4
20260903204520 102 109 5.0 12.0 0.00 0.00 0.00 32 1009.6
20260903203052 103 128 3.0 10.0 0.00 0.00 0.00 32 1009.8
20260903201522 101 114 5.0 13.0 0.00 0.00 0.00 34 1010.1
20260903200052 102 121 3.0 11.0 0.00 0.00 0.00 33 1010.3
20260903194533 102 214 2.0 9.0 0.00 0.00 0.00 34 1010.3
20260903193052 101 213 4.0 9.0 0.00 0.00 0.00 36 1010.5
20260903191527 100 255 3.0 9.0 0.00 0.00 0.00 36 1010.6
20260903184529 99 140 2.0 10.0 0.00 0.00 0.00 37 1011.1
20260903183110 99 108 2.0 7.0 0.00 0.00 0.00 38 1011.2
20260903181529 99 294 4.0 12.0 0.00 0.00 0.00 38 1011.5
20260903180101 98 229 2.0 10.0 0.00 0.00 0.00 41 1011.9
20260903174526 97 187 4.0 12.0 0.00 0.00 0.00 44 1012.1
20260903173058 94 200 7.0 12.0 0.00 0.00 0.00 46 1012.3
20260903171529 95 151 5.0 13.0 0.00 0.00 0.00 45 1012.5
20260903170106 95 188 7.0 12.0 0.00 0.00 0.00 47 1012.6
20260903164532 94 162 6.0 14.0 0.00 0.00 0.00 48 1012.7
20260903163102 93 195 5.0 12.0 0.00 0.00 0.00 52 1012.8
20260903161533 91 153 8.0 14.0 0.00 0.00 0.00 54 1012.9
20260903160003 91 153 6.0 11.0 0.00 0.00 0.00 56 1013.1
20260903154537 90 150 6.0 14.0 0.00 0.00 0.00 59 1013.3
20260903153102 88 181 5.0 10.0 0.00 0.00 0.00 63 1013.4
20260903151531 86 172 5.0 8.0 0.00 0.00 0.00 67 1013.5
20260903150107 85 201 6.0 11.0 0.00 0.00 0.00 70 1013.4
20260903144536 84 197 6.0 12.0 0.00 0.00 0.00 72 1013.4
20260903143106 83 212 3.0 9.0 0.00 0.00 0.00 75 1013.3
20260903141529 83 184 3.0 10.0 0.00 0.00 0.00 77 1013.3
20260903140114 82 177 3.0 7.0 0.00 0.00 0.00 79 1013.5
20260903134542 82 191 2.0 6.0 0.00 0.00 0.00 80 1013.5
20260903133004 81 207 1.0 5.0 0.00 0.00 0.00 81 1013.4
20260903131534 81 193 2.0 5.0 0.00 0.00 0.00 81 1013.3
20260903130005 81 189 2.0 4.0 0.00 0.00 0.00 81 1013.2
20260903124537 80 157 1.0 3.0 0.00 0.00 0.00 81 1013.1
20260903123008 80 162 0.0 4.0 0.00 0.00 0.00 81 1013.0
20260903121553 80 168 0.0 4.0 0.00 0.00 0.00 81 1012.8
20260903120011 81 203 1.0 4.0 0.00 0.00 0.00 81 1012.8
20260903114542 81 197 1.0 4.0 0.00 0.00 0.00 80 1012.7
20260903113012 81 183 2.0 5.0 0.00 0.00 0.00 80 1012.7
20260903111547 81 169 3.0 6.0 0.00 0.00 0.00 80 1012.6
20260903110016 81 148 1.0 7.0 0.00 0.00 0.00 80 1012.6
20260903104554 81 147 2.0 7.0 0.00 0.00 0.00 79 1012.7
20260903103015 82 153 2.0 6.0 0.00 0.00 0.00 79 1012.7
20260903101553 82 144 2.0 6.0 0.00 0.00 0.00 79 1012.7
20260903100036 82 203 2.0 6.0 0.00 0.00 0.00 79 1012.6
20260903094602 82 210 3.0 6.0 0.00 0.00 0.00 78 1012.6
20260903093030 82 204 4.0 6.0 0.00 0.00 0.00 78 1012.7
20260903091605 82 170 2.0 8.0 0.00 0.00 0.00 78 1012.8
20260903090033 82 168 4.0 8.0 0.00 0.00 0.00 77 1012.7
20260903084508 82 190 4.0 11.0 0.00 0.00 0.00 77 1012.5
20260903083036 82 209 3.0 11.0 0.00 0.00 0.00 77 1012.7
20260903081508 82 123 4.0 9.0 0.00 0.00 0.00 78 1012.5
20260903080042 82 213 3.0 8.0 0.00 0.00 0.00 78 1012.6
20260903074510 82 208 4.0 7.0 0.00 0.00 0.00 77 1012.7
20260903073041 82 141 2.0 9.0 0.00 0.00 0.00 77 1012.6
20260903071515 82 109 4.0 10.0 0.00 0.00 0.00 77 1012.6
20260903070147 83 143 4.0 9.0 0.00 0.00 0.00 76 1012.7
20260903064515 83 177 3.0 11.0 0.00 0.00 0.00 76 1012.8
20260903063049 83 110 4.0 8.0 0.00 0.00 0.00 75 1012.8
20260903061518 83 148 3.0 7.0 0.00 0.00 0.00 75 1012.9
20260903060059 83 127 3.0 11.0 0.00 0.00 0.00 75 1013.0
20260903054519 83 157 4.0 8.0 0.00 0.00 0.00 75 1013.0
20260903053049 83 136 4.0 10.0 0.00 0.00 0.00 74 1013.0